Meteo Giornale » Osservazioni meteo Russia » Vladikavkaz Beslan
ore: 18:30 - Osservazioni Meteo Vladikavkaz Beslan
Lat. 43° 12' N Lon. 44° 36' E Alt. 510 metri s.l.m.
20 °C
Molto Nuvoloso
Temp. 24 Ore
15 °C
22 °C
Nord
7.2 Km/h
Dew point 16 °C
Umidità 77 %
Visibilità 10 Km
Il sole sorge alle ore 05:25
Il sole tramonta alle ore 18:37
| Data e Ora | Cielo e Fenomeni | T °C | DP °C | Um. % | Pres. hPa | Vis. km | Vento km/h | |
|---|---|---|---|---|---|---|---|---|
| Oggi h: 18:30 | Molto Nuvoloso | 20 | 16 | 77 | 1018 | 10 | N 7.2 | |
| Oggi h: 18:00 | Molto Nuvoloso | 21 | 16 | 73 | 1019 | 10 | N 7.2 | |
| Oggi h: 17:30 | Molto Nuvoloso | 21 | 16 | 73 | 1018 | 10 | N 7.2 | |
| Oggi h: 17:00 | Molto Nuvoloso | 21 | 15 | 68 | 1018 | 10 | N 7.2 | |
| Oggi h: 16:30 | Molto Nuvoloso | 21 | 15 | 68 | 1018 | 10 | N 7.2 | |
| Oggi h: 16:00 | Molto Nuvoloso | 22 | 15 | 64 | 1018 | 10 | S 10.8 | |
| Oggi h: 15:30 | Molto Nuvoloso | 21 | 15 | 68 | 1018 | 10 | N 3.6 | |
| Oggi h: 15:00 | Molto Nuvoloso | 21 | 15 | 68 | 1018 | 10 | N 3.6 | |
| Oggi h: 14:30 | Molto Nuvoloso | 21 | 15 | 68 | 1018 | 10 | N 3.6 | |
| Oggi h: 14:00 | Molto Nuvoloso | 21 | 15 | 68 | 1018 | 10 | N 3.6 | |
| Oggi h: 13:30 | Molto Nuvoloso | 21 | 16 | 73 | 1018 | 10 | N 7.2 | |
| Oggi h: 13:00 | Molto Nuvoloso | 21 | 15 | 68 | 1018 | 10 | N 3.6 | |
| Oggi h: 12:30 | Molto Nuvoloso | 20 | 15 | 72 | 1018 | 10 | N 3.6 | |
| Oggi h: 12:00 | Molto Nuvoloso | 20 | 15 | 72 | 1018 | 10 | N 3.6 | |
| Oggi h: 11:30 | Molto Nuvoloso | 21 | 15 | 68 | 1018 | 10 | N 7.2 | |
| Oggi h: 11:00 | Molto Nuvoloso | 20 | 16 | 77 | 1018 | 10 | N 3.6 | |
| Oggi h: 10:30 | Molto Nuvoloso | 19 | 16 | 82 | 1019 | 10 | N 3.6 | |
| Oggi h: 10:03 | Molto Nuvoloso | 18 | 15 | 82 | 1019 | 10 | N 3.6 | |
| Oggi h: 10:00 | Molto Nuvoloso | 18 | 15 | 82 | 1019 | 10 | N 3.6 | |
| Oggi h: 09:30 | Molto Nuvoloso | 18 | 16 | 88 | 1019 | 10 | N 3.6 | |
| Oggi h: 09:00 | Molto Nuvoloso | 17 | 16 | 93 | 1018 | 10 | N 3.6 | |
| Oggi h: 08:45 | Molto Nuvoloso | 17 | 15 | 88 | 1018 | 10 | N 3.6 | |
| Oggi h: 08:30 | Molto Nuvoloso | 17 | 15 | 88 | 1018 | 10 | N 3.6 | |
| Oggi h: 08:00 | Molto Nuvoloso | 16 | 16 | 100 | 1018 | 10 | N 0 | |
| Oggi h: 07:30 | Molto Nuvoloso | 16 | 16 | 100 | 1018 | 10 | N 3.6 | |
| Oggi h: 07:00 | Molto Nuvoloso | 16 | 16 | 100 | 1018 | 7 | N 7.2 | |
| Oggi h: 06:30 | Foschia | 16 | 15 | 93 | 1018 | 4 | N 3.6 | |
| Oggi h: 06:00 | Foschia | 15 | 15 | 100 | 1018 | 5 | N 0 | |
| Oggi h: 05:30 | Molto Nuvoloso | 15 | 15 | 100 | 1018 | 6 | N 3.6 | |
| Oggi h: 05:00 | Foschia | 15 | 15 | 100 | 1018 | 5 | N 7.2 | |
| Oggi h: 04:30 | Molto Nuvoloso | 15 | 15 | 100 | 1018 | 8 | N 0 | |
| Oggi h: 04:00 | Molto Nuvoloso | 15 | 15 | 100 | 1018 | 10 | N 0 | |
| Oggi h: 03:30 | Molto Nuvoloso | 15 | 15 | 100 | 1018 | 10 | N 0 | |
| Oggi h: 03:00 | Foschia | 16 | 16 | 100 | 1018 | 4 | N 0 | |
| Oggi h: 02:30 | Foschia | 16 | 16 | 100 | 1018 | 5 | N 0 | |
| Oggi h: 02:00 | Molto Nuvoloso | 16 | 16 | 100 | 1018 | 6 | N 3.6 | |
| Oggi h: 01:30 | Foschia | 16 | 16 | 100 | 1018 | 4 | N 0 | |
| Oggi h: 01:00 | Molto Nuvoloso | 16 | 16 | 100 | 1018 | 6 | N 3.6 | |
| Oggi h: 00:30 | Foschia | 16 | 15 | 93 | 1019 | 5 | N 3.6 | |
| Oggi h: 00:00 | Coperto | 16 | 16 | 100 | 1019 | 7 | N 0 | |
| Ieri h: 23:30 | Coperto | 16 | 15 | 93 | 1018 | 7 | N 0 | |
| Ieri h: 23:00 | Foschia | 16 | 15 | 93 | 1019 | 5 | N 0 | |
| Ieri h: 22:30 | Coperto | 16 | 16 | 100 | 1019 | 8 | N 3.6 | |
| Ieri h: 22:00 | Coperto | 16 | 16 | 100 | 1019 | 7 | N 3.6 | |
| Ieri h: 21:30 | Coperto | 16 | 16 | 100 | 1019 | 10 | N 3.6 | |
| Ieri h: 21:00 | Coperto | 17 | 16 | 93 | 1019 | 10 | N 3.6 | |
| Ieri h: 20:30 | Coperto | 17 | 16 | 93 | 1019 | 10 | N 0 | |
| Ieri h: 20:00 | Coperto | 17 | 16 | 93 | 1019 | 10 | N 3.6 | |
| Ieri h: 19:30 | Coperto | 17 | 16 | 93 | 1019 | 10 | N 3.6 | |
| Ieri h: 19:00 | Coperto | 17 | 16 | 93 | 1019 | 10 | N 3.6 | |



